Location: Boissi�res
(45.2500°N, 2.3667°E)
Time: 00:32:23
(UTC+00:00)

Cosmos 1844 Rocket - Pass Details

Date: 03 March 2021
Orbit: 826 x 843 km, 71.0° (Epoch: 18 April)

Event Time Altitude Azimuth Distance (km) Brightness Sun altitude
Rises 20:05:59 0° 326° (NW) 3,373 6.6 -26.1°
Reaches altitude 10° 20:08:38 10° 317° (NW) 2,435 5.9 -26.5°
Maximum altitude 20:13:31 32° 255° (WSW) 1,379 4.2 -27.3°
Enters shadow 20:17:45 13° 197° (SSW) 2,214 4.8 -28.0°
